Temp
-5 -5 -5 -5 -5 -5 -5 -5 -5 -5 -5 -5 -5 -5 -5 -4 -4 -4 -4 -5 -5 -5 -5 -5 -5 -5 -4 -4 -4 -4 -4 -4 -4 -4 -4 -4 -5 -5 -5 -5 -5 -5
-5 -5 -5 -5 -5 -5 -5 -5 -5 -5 -5 -5 -5 -5 -5 -5 -5 -5 -5 -5 -5 -5 -5 -4 -5 -5 -5 -5 -5 -5 -4 -4 -4 -4 -4 -4 -4 -4 -5 -5 -5 -5
-5 -5 -5 -5 -5 -5 -5 -5 -5 -5 -5 -5 -5 -5 -5 -5 -5 -5 -5 -5 -5 -5 -5 -5 -5 -5 -5 -5 -5 -5 -5 -5 -5 -4 -5 -5 -5 -5 -5 -5 -5 -5
-5 -5 -5 -5 -5 -5 -5 -5 -5 -5 -5 -5 -5 -5 -5 -5 -5 -5 -5 -5 -5 -5 -5 -5 -5 -5 -5 -5 -5 -5 -5 -5 -5 -5 -5 -5 -5 -5 -5 -5 -5 -5
-5 -5 -5 -5 -5 -5 -5 -5 -5 -5 -5 -5 -5 -5 -5 -5 -5 -5 -5 -5 -5 -5 -5 -5 -5 -5 -5 -5 -5 -5 -5 -5 -5 -5 -5 -5 -5 -5 -5 -5 -5 -5
-5 -5 -5 -5 -5 -5 -5 -5 -5 -5 -5 -5 -5 -5 -5 -5 -5 -5 -5 -5 -5 -5 -5 -5 -5 -5 -5 -5 -5 -5 -5 -5 -5 -5 -5 -5 -5 -5 -5 -5 -5 -5
-5 -5 -5 -5 -5 -5 -5 -5 -5 -5 -5 -5 -5 -5 -5 -5 -5 -5 -5 -5 -5 -5 -5 -5 -5 -5 -5 -5 -5 -5 -5 -5 -5 -5 -5 -5 -5 -5 -5 -5 -5 -5
-5 -5 -5 -5 -5 -5 -5 -5 -5 -5 -5 -5 -5 -5 -5 -5 -5 -5 -5 -5 -5 -5 -5 -5 -5 -5 -5 -5 -5 -5 -5 -5 -5 -5 -5 -5 -5 -5 -5 -5 -5 -5
-5 -5 -5 -5 -5 -5 -5 -5 -5 -5 -5 -5 -5 -5 -5 -5 -5 -5 -5 -5 -5 -5 -5 -5 -5 -5 -5 -5 -5 -5 -5 -5 -5 -5 -5 -5 -5 -5 -5 -5 -5 -5
-5 -5 -5 -5 -5 -5 -5 -5 -5 -5 -5 -5 -5 -5 -5 -5 -5 -5 -5 -5 -5 -5 -5 -5 -5 -5 -5 -5 -5 -5 -6 -6 -6 -6 -6 -6 -6 -6 -6 -5 -5 -5
-5 -5 -5 -5 -5 -5 -5 -5 -5 -5 -5 -5 -5 -5 -5 -5 -5 -5 -5 -5 -5 -5 -5 -5 -6 -6 -6 -6 -6 -6 -6 -6 -6 -6 -6 -6 -6 -6 -5 -5 -5 -5
-6 -6 -6 -6 -5 -5 -5 -5 -5 -5 -5 -5 -5 -5 -5 -5 -5 -5 -6 -6 -6 -6 -6 -6 -6 -6 -6 -6 -6 -6 -6 -6 -6 -6 -6 -6 -6 -6 -6 -6 -6 -6
-6 -6 -6 -6 -6 -6 -5 -5 -5 -5 -5 -5 -5 -5 -6 -6 -6 -6 -6 -6 -6 -6 -6 -6 -6 -6 -6 -6 -6 -6 -6 -6 -6 -6 -6 -6 -6 -6 -6 -6 -6 -6
-6 -6 -6 -6 -6 -6 -5 -5 -5 -5 -5 -5 -6 -6 -6 -6 -6 -6 -6 -6 -6 -6 -6 -6 -6 -6 -6 -6 -6 -6 -6 -6 -6 -6 -6 -6 -6 -6 -6 -7 -7 -7
-6 -6 -6 -6 -6 -5 -5 -5 -5 -5 -5 -5 -5 -6 -6 -6 -6 -6 -6 -6 -6 -6 -6 -6 -6 -6 -6 -6 -6 -6 -6 -6 -6 -6 -7 -7 -7 -7 -7 -7 -7 -7
-6 -6 -6 -6 -6 -6 -6 -6 -6 -6 -6 -6 -6 -6 -6 -6 -6 -6 -6 -6 -6 -6 -6 -6 -6 -6 -6 -6 -6 -6 -6 -6 -6 -7 -7 -7 -7 -7 -7 -8 -8 -8
-6 -6 -6 -6 -6 -6 -6 -6 -6 -6 -6 -6 -6 -6 -6 -6 -6 -6 -6 -6 -7 -7 -7 -7 -7 -7 -7 -7 -7 -7 -7 -7 -7 -7 -8 -8 -8 -8 -8 -8 -8 -8
-6 -6 -6 -6 -6 -6 -6 -6 -6 -6 -6 -6 -7 -7 -7 -7 -7 -7 -7 -7 -7 -7 -7 -7 -7 -7 -7 -7 -7 -8 -8 -8 -8 -8 -8 -8 -8 -8 -8 -8 -8 -8
-6 -6 -6 -6 -6 -6 -6 -7 -7 -7 -7 -7 -7 -7 -7 -7 -7 -7 -7 -7 -7 -7 -7 -7 -7 -7 -8 -8 -8 -8 -8 -8 -8 -8 -8 -8 -8 -8 -8 -8 -8 -8
-6 -7 -7 -7 -7 -7 -7 -7 -7 -7 -7 -7 -7 -7 -7 -7 -7 -7 -7 -7 -7 -7 -7 -8 -8 -8 -8 -8 -8 -8 -8 -8 -8 -8 -8 -8 -8 -8 -8 -8 -8 -8
-7 -7 -7 -7 -7 -7 -7 -7 -7 -7 -7 -7 -7 -7 -7 -7 -8 -8 -8 -8 -8 -8 -8 -8 -8 -8 -8 -8 -8 -8 -8 -8 -8 -8 -8 -8 -8 -9 -9 -9 -9 -9
-7 -7 -7 -7 -7 -7 -7 -7 -7 -7 -7 -7 -7 -8 -8 -8 -8 -8 -8 -8 -8 -8 -8 -8 -8 -8 -8 -8 -8 -8 -8 -8 -8 -8 -8 -8 -9 -9 -9 -9 -9 -9
-7 -7 -7 -7 -7 -7 -7 -7 -7 -7 -7 -7 -8 -8 -8 -8 -8 -8 -8 -8 -8 -8 -8 -8 -8 -8 -8 -8 -8 -8 -9 -9 -9 -9 -9 -9 -9 -9 -9 -9 -9 -9
-7 -7 -7 -7 -7 -7 -7 -8 -8 -8 -8 -8 -8 -8 -8 -8 -8 -8 -8 -8 -8 -8 -8 -9 -9 -9 -9 -9 -9 -9 -9 -9 -9 -9 -9 -9 -9 -9 -10 -10 -10 -10
-7 -7 -7 -8 -8 -8 -8 -8 -8 -8 -8 -8 -8 -8 -8 -8 -8 -8 -8 -9 -9 -9 -9 -9 -9 -9 -9 -9 -9 -9 -9 -9 -9 -9 -9 -9 -9 -10 -10 -10 -10 -10
-8 -8 -8 -8 -8 -8 -8 -8 -8 -8 -8 -8 -8 -8 -8 -8 -9 -9 -9 -9 -9 -9 -9 -9 -9 -9 -9 -9 -9 -9 -9 -10 -10 -10 -10 -10 -10 -10 -10 -10 -10 -10
Height
5897 5897 5897 5898 5899 5899 5900 5900 5900 5900 5900 5900 5900 5900 5900 5900 5900 5900 5900 5900 5900 5900 5899 5899 5898 5898 5898 5897 5897 5896 5896 5895 5895 5894 5894 5893 5892 5892 5891 5891 5890 5890
5896 5896 5897 5898 5898 5898 5899 5899 5899 5899 5899 5899 5899 5899 5899 5899 5899 5899 5899 5899 5899 5898 5898 5897 5897 5897 5896 5896 5895 5894 5894 5893 5893 5892 5892 5891 5890 5890 5889 5888 5888 5887
5895 5895 5896 5896 5897 5897 5898 5898 5898 5898 5898 5898 5898 5898 5898 5898 5898 5898 5897 5897 5897 5897 5896 5896 5895 5895 5894 5894 5893 5892 5892 5891 5890 5890 5889 5889 5888 5887 5887 5886 5885 5884
5894 5894 5895 5895 5895 5896 5896 5896 5896 5896 5896 5897 5897 5897 5897 5896 5896 5896 5896 5896 5895 5895 5895 5894 5893 5893 5892 5892 5891 5890 5889 5888 5888 5887 5887 5886 5885 5884 5884 5883 5882 5882
5892 5893 5893 5893 5894 5894 5894 5895 5895 5895 5895 5895 5895 5895 5895 5895 5894 5894 5894 5894 5893 5893 5892 5891 5891 5890 5889 5888 5888 5887 5886 5885 5884 5884 5883 5882 5881 5881 5880 5880 5879 5879
5891 5891 5892 5892 5892 5892 5892 5893 5893 5893 5893 5893 5893 5893 5892 5892 5892 5891 5891 5891 5890 5889 5889 5888 5888 5887 5886 5885 5884 5883 5882 5881 5881 5880 5879 5878 5878 5877 5876 5876 5875 5875
5890 5890 5890 5890 5890 5890 5891 5891 5891 5891 5890 5890 5890 5890 5889 5889 5888 5888 5888 5887 5886 5886 5885 5885 5884 5883 5882 5882 5881 5880 5879 5878 5877 5876 5875 5875 5874 5873 5872 5871 5871 5871
5888 5888 5888 5888 5888 5888 5888 5888 5888 5888 5888 5887 5887 5887 5886 5886 5885 5884 5884 5883 5883 5882 5881 5881 5880 5879 5878 5877 5876 5875 5874 5873 5873 5872 5871 5870 5870 5869 5868 5867 5867 5866
5887 5887 5886 5886 5886 5886 5886 5885 5885 5885 5884 5884 5883 5883 5882 5882 5881 5880 5880 5879 5878 5878 5877 5876 5875 5874 5873 5872 5871 5871 5870 5869 5868 5867 5866 5866 5865 5864 5863 5863 5862 5862
5884 5884 5884 5884 5883 5883 5882 5882 5882 5881 5881 5880 5880 5879 5878 5878 5877 5876 5875 5875 5874 5873 5872 5871 5870 5869 5868 5867 5866 5865 5865 5864 5863 5862 5861 5861 5860 5859 5858 5858 5857 5857
5882 5881 5881 5881 5880 5880 5879 5879 5878 5878 5877 5877 5876 5875 5875 5874 5873 5872 5871 5870 5869 5868 5867 5866 5865 5864 5863 5862 5861 5860 5859 5858 5857 5857 5856 5855 5855 5854 5853 5852 5851 5851
5879 5879 5879 5878 5878 5877 5876 5876 5875 5874 5874 5873 5872 5871 5870 5870 5869 5868 5867 5865 5864 5863 5862 5861 5860 5859 5858 5857 5856 5855 5854 5853 5853 5852 5851 5850 5849 5848 5848 5847 5846 5845
5877 5876 5876 5875 5875 5874 5873 5872 5872 5871 5870 5869 5868 5867 5866 5865 5864 5863 5862 5861 5860 5859 5858 5856 5855 5854 5853 5852 5851 5850 5849 5848 5848 5847 5846 5845 5844 5842 5841 5840 5839 5839
5874 5873 5873 5872 5871 5870 5869 5868 5868 5867 5866 5865 5864 5863 5862 5860 5859 5858 5857 5856 5855 5854 5853 5852 5851 5850 5848 5847 5846 5845 5845 5844 5843 5841 5840 5839 5838 5837 5835 5834 5833 5832
5870 5870 5869 5868 5868 5867 5866 5865 5864 5863 5862 5861 5860 5858 5857 5856 5855 5854 5853 5852 5851 5850 5849 5848 5847 5845 5844 5843 5842 5840 5839 5838 5837 5836 5834 5833 5832 5831 5830 5828 5827 5826
5867 5866 5865 5865 5864 5863 5862 5861 5860 5859 5858 5857 5855 5854 5853 5852 5851 5849 5849 5847 5846 5845 5844 5843 5842 5840 5839 5838 5836 5835 5833 5832 5831 5830 5829 5827 5826 5825 5824 5823 5822 5821
5863 5863 5862 5861 5860 5859 5858 5857 5856 5855 5854 5852 5851 5850 5848 5847 5846 5845 5844 5843 5842 5841 5839 5838 5837 5835 5834 5832 5831 5829 5828 5826 5825 5824 5823 5821 5820 5819 5818 5817 5816 5815
5860 5859 5858 5857 5856 5855 5854 5853 5852 5851 5849 5848 5846 5845 5844 5843 5842 5841 5840 5838 5837 5836 5834 5833 5831 5829 5828 5826 5825 5823 5822 5820 5819 5818 5817 5815 5814 5812 5812 5811 5810 5809
5856 5855 5854 5853 5852 5851 5850 5849 5848 5846 5845 5844 5842 5841 5840 5839 5837 5836 5835 5833 5832 5830 5829 5827 5826 5824 5822 5821 5819 5818 5816 5814 5813 5812 5811 5809 5807 5806 5805 5804 5803 5802
5853 5851 5850 5849 5848 5847 5846 5845 5843 5842 5841 5839 5838 5837 5835 5834 5833 5831 5830 5828 5827 5825 5824 5822 5820 5818 5816 5814 5813 5811 5809 5808 5806 5805 5804 5803 5801 5799 5798 5796 5796 5795
5849 5848 5847 5845 5844 5843 5842 5840 5839 5838 5837 5835 5834 5832 5831 5829 5828 5827 5825 5823 5821 5820 5818 5816 5814 5811 5809 5808 5806 5805 5803 5801 5799 5798 5797 5796 5794 5792 5790 5789 5788 5787
5845 5844 5843 5841 5840 5839 5838 5836 5835 5834 5832 5831 5830 5828 5826 5825 5823 5822 5820 5818 5816 5814 5812 5810 5807 5805 5803 5802 5800 5798 5796 5794 5792 5791 5790 5789 5787 5785 5783 5782 5780 5779
5841 5840 5839 5837 5836 5835 5834 5832 5831 5830 5828 5827 5825 5823 5822 5820 5818 5816 5814 5812 5810 5807 5805 5803 5801 5799 5797 5795 5794 5792 5789 5787 5785 5784 5782 5781 5779 5777 5775 5774 5772 5770
5836 5835 5835 5834 5832 5831 5830 5828 5827 5825 5824 5822 5821 5819 5817 5815 5813 5811 5808 5806 5803 5801 5799 5797 5795 5792 5790 5788 5787 5784 5782 5779 5777 5776 5775 5773 5771 5769 5768 5766 5764 5762
5832 5832 5831 5830 5829 5827 5826 5824 5823 5821 5819 5818 5816 5814 5812 5810 5808 5805 5803 5800 5798 5795 5793 5791 5788 5786 5783 5782 5780 5777 5775 5772 5770 5768 5766 5765 5763 5762 5760 5758 5756 5754
5829 5829 5828 5827 5825 5823 5822 5820 5818 5817 5815 5813 5811 5809 5807 5805 5802 5800 5798 5795 5792 5790 5787 5784 5782 5780 5777 5775 5773 5771 5768 5765 5763 5760 5758 5756 5755 5753 5751 5750 5748 5746
Wind_Speed
4 3 3 3 3 4 4 5 5 6 7 7 8 8 9 9 9 9 9 10 11 12 12 13 13 14 15 16 16 17 18 19 19 20 21 21 22 22 21 21 21 21
3 4 4 5 5 6 6 7 8 8 9 10 10 10 11 11 11 11 12 12 13 13 14 15 15 15 16 16 17 18 19 20 21 22 23 23 24 24 25 25 24 24
5 6 7 7 8 8 9 9 10 11 11 12 12 12 13 13 13 14 15 15 15 15 16 16 17 17 17 18 19 20 21 22 23 23 24 25 26 26 26 27 27 27
8 9 9 10 10 11 11 12 12 13 13 14 14 14 15 15 16 16 17 18 18 18 19 19 19 20 20 21 22 23 24 25 25 26 26 27 27 28 28 28 28 29
11 12 12 12 13 14 14 15 15 16 16 16 17 17 17 18 19 19 20 21 22 22 23 23 24 24 25 25 26 27 28 28 28 28 28 29 29 29 29 30 30 30
14 14 15 15 16 16 17 17 18 18 19 19 20 20 20 21 22 22 23 24 25 26 27 27 28 28 29 29 30 30 31 31 31 30 30 30 30 31 31 32 32 32
16 17 17 18 18 19 19 20 20 21 21 21 22 22 23 23 24 25 25 27 28 28 29 30 31 32 32 32 32 33 33 33 32 32 31 31 32 32 32 33 33 33
17 18 19 19 20 21 21 22 23 23 23 24 24 25 25 26 27 27 28 29 30 31 32 32 33 34 34 34 34 34 34 34 33 33 33 32 32 32 33 33 33 33
18 18 19 20 21 22 22 23 24 24 25 26 26 27 27 28 29 30 30 31 32 32 33 34 34 34 35 35 34 34 34 34 33 33 33 33 33 33 33 33 33 33
18 19 20 21 21 22 23 24 24 25 26 27 27 28 29 29 30 30 31 32 33 33 34 34 34 35 35 35 34 34 34 33 33 33 33 33 33 33 34 34 34 34
18 19 20 21 22 23 23 24 25 26 27 28 28 29 30 30 31 31 32 33 34 34 34 34 34 34 34 34 34 34 33 34 34 34 34 34 34 34 35 36 36 37
18 19 20 21 22 23 24 25 27 27 28 29 30 31 31 32 32 32 33 33 33 34 34 34 34 34 34 34 34 34 34 34 34 34 35 35 36 37 37 38 38 39
19 20 21 22 23 24 25 26 27 27 28 29 29 30 30 31 32 32 32 33 33 33 33 33 34 34 34 34 34 34 34 35 35 35 36 37 37 38 38 38 39 39
19 19 20 21 22 23 23 24 25 26 26 27 28 29 30 30 31 31 32 32 32 32 32 32 33 33 34 34 34 35 35 35 36 36 37 37 37 37 37 38 38 38
17 18 19 20 21 22 23 24 25 25 26 27 27 28 29 30 30 31 31 32 32 32 32 32 32 33 34 34 35 36 37 37 36 36 37 37 37 37 37 37 37 37
17 18 19 20 21 23 23 24 25 25 26 26 27 28 28 29 30 30 31 31 31 31 31 32 32 33 34 35 36 37 38 38 37 37 37 37 38 37 37 37 37 38
17 18 19 20 21 22 23 24 24 25 25 26 27 27 28 29 29 30 30 30 30 31 31 32 33 34 35 36 37 37 38 38 38 37 37 38 38 39 38 39 39 39
18 19 20 20 22 23 24 24 25 25 26 26 27 28 28 29 29 29 30 30 31 32 33 34 35 36 36 37 37 37 37 38 38 38 38 39 40 40 40 40 40 40
19 20 21 22 23 24 24 25 26 26 27 27 27 28 28 29 29 30 30 31 32 33 35 36 36 37 37 37 38 38 38 38 39 39 39 40 40 41 41 41 41 41
20 21 22 24 25 25 25 26 26 27 27 28 28 28 29 29 30 31 32 33 34 36 36 37 38 38 38 39 39 39 39 40 40 40 40 40 41 41 42 42 42 42
21 22 24 25 26 26 26 27 27 28 28 28 28 29 30 30 31 32 34 35 36 37 38 38 39 39 40 40 40 40 41 41 42 42 42 42 42 42 44 44 44 44
23 24 25 26 26 27 27 28 28 28 29 29 29 30 30 31 32 34 36 37 38 39 39 39 40 40 41 41 41 41 42 42 43 44 44 44 44 45 45 46 46 46
24 25 26 26 27 27 27 28 28 29 29 30 30 31 32 33 35 37 38 39 40 41 41 41 41 42 42 43 43 43 43 44 45 46 46 46 46 46 46 46 46 46
25 26 26 26 27 27 27 28 28 29 30 30 31 32 34 36 38 39 40 41 41 41 41 42 42 43 44 44 44 45 45 46 47 47 47 47 47 47 47 47 47 47
25 26 26 26 27 27 28 28 29 30 31 31 33 34 36 38 40 40 40 41 41 41 42 42 43 44 45 45 46 46 47 47 48 49 49 48 48 48 48 48 48 49
25 26 26 27 27 28 29 29 30 31 32 33 35 37 39 39 40 40 40 41 41 42 42 43 44 45 46 46 47 47 48 48 49 49 49 49 48 48 48 48 48 49
Wind_Direction
185 190 198 212 221 233 246 258 268 273 278 281 284 286 289 292 296 298 301 302 304 304 305 308 310 313 315 317 317 318 318 318 317 316 315 313 311 310 309 309 308 308
220 228 237 245 250 257 263 269 275 279 283 285 288 289 290 292 293 293 294 294 295 297 299 301 303 305 307 309 310 311 313 313 313 312 310 308 306 305 305 305 304 304
249 252 256 262 266 269 274 277 279 281 282 284 286 287 287 288 289 290 290 290 290 291 292 293 295 297 298 300 303 304 306 308 308 308 307 304 302 301 300 300 300 300
265 267 269 271 274 276 277 278 279 280 281 283 284 284 285 285 285 285 285 285 285 285 286 287 289 291 293 296 298 300 301 303 304 305 304 302 299 298 297 296 295 296
274 275 276 277 278 279 280 281 282 283 283 284 283 283 283 282 282 282 282 283 284 286 287 288 290 292 293 295 296 297 298 298 300 301 300 299 297 296 295 294 293 293
278 279 279 280 280 280 280 281 281 282 282 282 281 281 282 282 283 284 285 286 287 288 289 289 290 290 291 292 293 293 294 294 296 296 297 296 295 294 293 292 291 291
276 276 277 277 277 277 277 277 278 278 279 279 280 281 282 283 284 284 285 285 285 286 287 287 288 288 289 290 290 290 290 291 292 293 294 293 293 292 291 290 289 289
274 275 276 276 276 276 276 277 277 277 278 279 280 281 282 282 283 283 283 283 284 284 285 286 287 287 288 288 288 288 289 289 291 292 292 292 291 290 289 288 287 286
276 277 277 277 278 278 279 279 280 280 281 282 283 283 284 284 284 284 284 284 285 285 286 286 286 286 286 287 287 288 289 290 291 291 291 291 290 288 287 286 285 284
278 280 280 281 282 283 283 284 285 285 285 285 285 285 285 285 285 285 285 285 285 285 285 286 286 287 288 288 289 290 291 291 291 291 290 289 288 286 285 284 283 282
282 283 285 286 286 287 288 288 288 288 287 286 286 285 285 285 285 285 285 285 285 286 286 287 288 289 290 291 292 292 292 292 291 290 289 287 286 285 284 283 282 281
284 284 286 287 287 288 288 288 288 287 287 286 286 286 286 286 286 287 287 287 288 289 290 291 291 292 292 292 292 292 291 291 290 288 287 286 285 284 283 282 281 280
283 284 285 286 286 287 287 286 286 286 286 286 287 287 288 289 289 289 290 290 291 291 292 293 293 293 292 292 291 290 289 289 287 286 285 284 283 283 282 281 280 279
284 286 287 288 289 288 288 288 288 288 289 290 291 291 291 292 292 292 292 293 293 293 292 291 291 291 290 290 290 288 287 286 286 285 285 284 284 283 283 282 281 280
291 293 294 295 295 293 293 293 293 293 294 294 294 293 293 293 293 293 293 292 292 292 290 289 289 288 288 288 288 288 287 287 287 287 287 287 286 285 284 284 283 281
296 297 297 297 297 295 295 296 296 296 296 295 294 293 292 292 292 292 291 290 290 289 289 288 288 288 288 289 289 289 289 289 289 288 288 287 286 286 284 283 282 281
299 299 299 299 298 298 299 300 299 298 297 295 294 293 293 292 292 291 291 290 290 290 290 291 291 291 292 291 291 291 291 290 290 289 288 287 286 285 283 282 281 280
305 304 303 302 302 302 302 302 301 299 297 296 295 295 295 294 293 292 292 292 293 294 294 295 295 294 294 293 292 291 290 290 289 288 287 286 285 284 283 282 281 280
309 308 307 307 306 306 305 304 302 300 299 298 298 297 296 295 294 293 294 295 296 297 297 297 296 295 294 293 292 291 290 289 288 288 287 286 286 285 284 283 282 281
312 309 310 311 310 309 307 305 303 301 301 300 299 298 296 295 295 296 297 298 298 299 298 298 297 295 294 293 293 292 292 291 290 289 288 287 287 286 285 284 283 282
314 313 312 311 310 309 307 305 304 303 302 301 299 297 296 296 297 298 299 300 300 299 299 298 297 295 295 295 295 295 294 293 292 291 290 289 288 286 285 285 284 283
318 315 313 312 310 309 307 305 304 303 301 299 298 297 298 298 300 301 301 301 301 300 299 298 297 297 297 296 296 296 295 294 293 292 291 291 290 288 287 286 285 284
319 316 314 312 310 308 306 304 303 301 300 299 299 300 301 301 302 303 303 302 301 301 300 300 299 299 298 298 298 297 296 295 294 294 293 292 291 290 289 287 286 285
319 317 314 312 309 306 304 303 302 301 301 301 302 302 303 303 304 304 303 302 302 301 301 301 301 301 300 300 300 300 299 298 297 296 295 294 292 291 290 288 287 285
319 316 312 308 306 305 304 304 303 303 303 303 304 304 305 305 304 304 304 303 303 303 303 303 303 302 302 302 302 301 300 299 298 297 296 294 292 291 290 288 286 285
317 312 308 306 306 306 306 306 305 305 305 306 306 306 306 305 305 305 305 305 305 305 305 305 304 304 304 303 302 301 300 299 298 297 295 294 292 291 289 287 286 285